Погода в Макарске

Хорватия     43°18′07″N   17°00′57″E
темп.,
°C
ветер,
м/с
пор.,
м/с
влажн.,
%
обл.,
%
осадки,
мм/ч
давл.,
гПа
погр.,
м
15 мая, сб
сб1523:00+15в577396 0.4 1012324
02:00+15св557093 0.6 1010176
05:00+14св5674100 0.4 1008340
08:00+13св3378100 1.4 1010282
11:00+13св4479100 1.1 1010260
14:00+14с337674 2.3 1011308
17:00+15зсз226962 0.1 1011366
20:00+14з3374100 0.1 1012265
16 мая, вс
вс1623:00+14ссз117372 0.0 1013183
02:00+14ююв227599 0.0 1012351
05:00+14юв3382100 0.2 1011355
08:00+14юв3479100 0.4 1012325
11:00+15вюв337695 0.0 1013356
14:00+16ююв4476100 0.0 1013503
17:00+16ююв4579100 0.0 1012343
20:00+16юв457798 0.0 1011224
17 мая, пн
пн1723:00+16вюв5877100 0.0 1012388
02:00+15в587250 0.0 1010304
05:00+15вюв6107376 0.0 1009420
08:00+17вюв8127282 0.0 1010581
11:00+17юв1013795 0.0 1010648
14:00+17ююв9108261 0.0 1010516
17:00+17ю448322 0.0 1010283
20:00+17юв338495 0.0 101068
18 мая, вт
вт1823:00+17с128234 0.0 101114
02:00+17зсз117828 0.1 101111
05:00+17сз117691 0.1 101130
08:00+17сз2269100 0.1 101269
11:00+17зюз116641 0.0 1013105
14:00+17сз226997 0.1 1013115
17:00+17сз33657 0.0 1012176
20:00+17св0167100 0.0 101111
19 мая, ср
ср1923:00+16ссз81071100 0.1 1013743
02:00+13сз346725 0.3 1014283
05:00+13с447583 0.0 1014234
08:00+13св55652 0.0 1015372
11:00+15с335646 0.0 1017686
14:00+17с335224 0.0 1016791
17:00+17с245126 0.0 1016615
20:00+15ссв565914 0.0 1018360